Change the Weather History Date:

Sunday, January 8, 2012

  Actual Average Record
Temperature  
Mean Temperature 59 °F 51 °F  
Max Temperature 66 °F 62 °F 84 °F (1923)
Min Temperature 52 °F 40 °F 6 °F (1886)
Degree Days  
Heating Degree Days 6 14  
Month to date heating degree days 71 112  
Since 1 July heating degree days 605 714  
Cooling Degree Days 0 0  
Month to date cooling degree days 0 0  
Year to date cooling degree days 0 0  
Growing Degree Days 8 (Base 50)    
Moisture  
Dew Point 50 °F    
Average Humidity 70    
Maximum Humidity 84    
Minimum Humidity 55    
Precipitation  
Precipitation T in 0.05 in 1.09 in (1984)
Month to date precipitation T 0.44  
Year to date precipitation T 0.44  
Snow  
Snow 0.00 in - - ()
Month to date snowfall 0.0  
Since 1 July snowfall 0.0  
Snow Depth 0.00 in    
Sea Level Pressure  
Sea Level Pressure 29.96 in    
Wind  
Wind Speed 5 mph (NE)    
Max Wind Speed 15 mph    
Max Gust Speed 20 mph    
Visibility 9 miles    
Events Rain    
T = Trace of Precipitation, MM = Missing Value Source: NWS Daily Summary

Daily Weather History Graph

Daily Weather History Graph

Search for Another Location

Airport or City:

Trip Planner

Search our weather history database for the weather conditions in past years. The results will help you decide how hot, cold, wet, or windy it might be!

Date:

Astronomy

Jan. 08, 2012 Rise Set
Actual Time 7:29 AM CST 5:51 PM CST
Civil Twilight 7:03 AM CST 6:17 PM CST
Nautical Twilight 6:34 AM CST 6:46 PM CST
Astronomical Twilight 6:05 AM CST 7:15 PM CST
Moon 5:34 PM CST (1/8) 6:49 AM CST (1/8)
Length of Visible Light 11h 13m
Length of Day
10h 21m
Full, 100% of the Moon is Illuminated
Jan 8
Full
Jan 9
Full
Jan 16
Last Quarter
Jan 23
New
Jan 30
First Quarter

Hourly Weather History & Observations

Time (CST) Temp. Dew Point Humidity Pressure Visibility Wind Dir Wind Speed Gust Speed Precip Events Conditions
12:53 AM 54.0 °F 39.9 °F 59% 29.97 in 10.0 mi Calm Calm - N/A   Clear
1:08 AM 55.4 °F 39.2 °F 54% 30.01 in 10.0 mi North 3.5 mph - N/A   Mostly Cloudy
1:53 AM 55.0 °F 39.0 °F 55% 29.96 in 10.0 mi NE 3.5 mph - N/A   Mostly Cloudy
2:49 AM 55.4 °F 39.2 °F 54% 29.99 in 10.0 mi North 6.9 mph - N/A   Mostly Cloudy
2:53 AM 55.0 °F 39.9 °F 57% 29.95 in 10.0 mi North 3.5 mph - N/A   Mostly Cloudy
3:53 AM 55.4 °F 39.2 °F 54% 29.98 in 10.0 mi Calm Calm - N/A   Scattered Clouds
4:53 AM 54.0 °F 39.9 °F 59% 29.94 in 10.0 mi Calm Calm - N/A   Partly Cloudy
5:53 AM 53.1 °F 39.9 °F 61% 29.95 in 10.0 mi Calm Calm - N/A   Partly Cloudy
6:11 AM 51.8 °F 39.2 °F 62% 29.99 in 10.0 mi Calm Calm - N/A   Mostly Cloudy
6:47 AM 53.6 °F 42.8 °F 67% 30.00 in 10.0 mi NNE 5.8 mph - N/A   Overcast
6:53 AM 54.0 °F 42.1 °F 64% 29.97 in 10.0 mi NNE 4.6 mph - N/A   Overcast
7:53 AM 54.0 °F 46.0 °F 75% 29.98 in 8.0 mi NE 5.8 mph - N/A   Overcast
8:53 AM 55.0 °F 48.9 °F 80% 29.99 in 8.0 mi ENE 6.9 mph - N/A   Overcast
9:53 AM 55.9 °F 50.0 °F 80% 30.01 in 7.0 mi ENE 4.6 mph - N/A   Overcast
10:53 AM 59.0 °F 53.1 °F 81% 30.01 in 7.0 mi ENE 4.6 mph - N/A   Overcast
11:53 AM 61.0 °F 55.0 °F 81% 29.99 in 7.0 mi ENE 5.8 mph - N/A   Overcast
12:44 PM 62.6 °F 55.4 °F 77% 29.99 in 7.0 mi East 5.8 mph - N/A   Overcast
12:53 PM 62.1 °F 55.9 °F 80% 29.96 in 7.0 mi NE 4.6 mph - N/A   Overcast
1:53 PM 64.0 °F 57.0 °F 78% 29.93 in 8.0 mi NE 6.9 mph - N/A   Overcast
2:53 PM 64.0 °F 57.9 °F 80% 29.91 in 8.0 mi NE 6.9 mph - N/A   Overcast
3:33 PM 66.2 °F 57.2 °F 73% 29.94 in 9.0 mi NE 8.1 mph - N/A   Overcast
3:53 PM 66.0 °F 57.9 °F 75% 29.88 in 10.0 mi ENE 6.9 mph - N/A   Mostly Cloudy
4:15 PM 64.4 °F 57.2 °F 77% 29.93 in 10.0 mi NNE 6.9 mph - N/A   Mostly Cloudy
4:53 PM 64.9 °F 57.9 °F 78% 29.89 in 9.0 mi NE 8.1 mph - N/A   Overcast
5:53 PM 64.0 °F 57.9 °F 80% 29.92 in 10.0 mi NE 4.6 mph - N/A   Overcast
6:53 PM 63.0 °F 57.0 °F 81% 29.93 in 9.0 mi ENE 6.9 mph - 0.00 in Rain Light Rain
7:53 PM 61.0 °F 55.0 °F 81% 29.91 in 9.0 mi ENE 10.4 mph - 0.00 in   Mostly Cloudy
8:49 PM 60.8 °F 55.4 °F 82% 29.97 in 8.0 mi ENE 6.9 mph - 0.00 in   Overcast
8:53 PM 61.0 °F 55.0 °F 81% 29.94 in 8.0 mi NE 6.9 mph - 0.00 in   Overcast
9:53 PM 62.1 °F 55.9 °F 80% 29.94 in 8.0 mi Calm Calm - N/A   Overcast
10:53 PM 62.1 °F 57.0 °F 84% 29.93 in 8.0 mi ENE 9.2 mph - N/A   Overcast
11:18 PM 62.6 °F 57.2 °F 82% 29.94 in 8.0 mi East 10.4 mph - N/A   Overcast
11:53 PM 63.0 °F 57.9 °F 84% 29.94 in 8.0 mi NE 4.6 mph - N/A   Overcast